COSMOS 1275 DEB, 42233

Orbit data source: Space-Track

COSMOS 1275 DEB, 42233 is space debris in LEO originally from a launch on Thu, 04 Jun 1981 UTC launched from the Plesetsk Missile And Space Complex (PKMTR). Debris objects in space refer to the collection of defunct objects orbiting the Earth. Examples of debris include non-operational satellites, rocket bodies, and fragments generated from explosions, collisions, or faulty payload assembly.

Loading next visibility...
Identifier
42233, 1981-053UZ
Orbit
LEO
Last TLE update
15 hours ago
Origin
Manufacturer
Unknown
Mission
Spacecraft
Bus & Motor
Unknown
Mass
Unknown
Launch date (UTC)
1981-06-04 (44 years ago)
Launch vehicle
Unknown
Launch site
Plesetsk Missile And Space Complex (PKMTR)
Object type
Payload
Rocket body
Debris
Shape & HBR
Unknown
Radar Cross Section
Small (<0.1 m²)

Expand to show TLE details & history

TLE from 15 hours ago
0 COSMOS 1275 DEB
1 42233U 81053UZ  25191.40167506  .00000847  00000-0  94210-3 0  9996
2 42233  83.0400 242.0740 0130843   8.7379 351.6006 13.66783323533489
Epoch: 2025-07-10T09:38Z
TLE epoch observation values (Epoch: 2025-07-10T09:38:24.725Z)
Latitude
0.00003°
Longitude
168.9025°
Altitude
918.395 km
Speed
7.44 km/s
True Right ascension
16h 08m 17s
True Declination
0° 00' 00"
Sunlit
Object was in full shadow at epoch
Visualization orbit readout
Latitude
-36.05602°
Longitude
-6.47837°
Altitude
1,108.951 km
Speed
7.255 km/s
Apparent Right ascension
02h 55m 44s
Apparent Declination
-40° 32' 10"
Sunlit
Object is in daylight
Visualization observer readout
Local Sidereal Time
13:01:25
Azimuth
259.064° W
Elevation
-68.265°
Doppler factor
1
Orbital elements
Apogee altitude
1,104.944 km
Perigee altitude
911.651 km
Semi-major axis
7,386.435 km
Eccentricity
0.01308
Inclination
83.04°
RAAN
242.074°
Arg. of periapsis
8.7379°
True anomaly
Unknown
Mean anomaly
351.6006°
Eccentric anomaly
Unknown
Mean motion
3.41894 °/min
Orbital period
105.3 mins
BSTAR
0.0009421
Loading maneuver chart data...
Loading SW <> Apogee altitude chart data...
Loading historical data...
Loading historical data...
Loading historical data...
Loading historical data...
Loading historical data...
Loading historical data...
Loading historical data...

COSMOS 1275 DEB Visibility forecast

Observer location: undefined°, undefined°

Span
Click to sort rows by Start time (UTC) header in descending order
Start Az.
Max El. time (UTC)
Max El. Az.
Max El.
End time (UTC)
End Az.
10 mins2025-07-11 03:19:08.266Z149.066° SSE2025-07-11 03:24:08.266Z83.652° E29.836°2025-07-11 03:29:08.266Z25.382° NE
9 mins2025-07-11 05:06:08.266Z232.951° WSW2025-07-11 05:10:08.266Z287.461° WNW26.94°2025-07-11 05:15:08.266Z345.798° N
10 mins2025-07-11 14:20:08.266Z16.975° NNE2025-07-11 14:25:08.266Z77.9° E29.229°2025-07-11 14:30:08.266Z134.013° SE
11 mins2025-07-11 16:06:08.266Z332.673° NNW2025-07-11 16:11:08.266Z270.706° WNW32.265°2025-07-11 16:17:08.266Z206.488° SW
|